Sparta, IL

9:12 AM CDT on May 26, 2017 (GMT -0500)
Sparta Community-Hunter

Weather History for KSAR - April, 2013

Change the Weather History Date:

Sunday, April 28, 2013

  Actual Average (KBLV) Record (KBLV)
Temperature  
Mean Temperature 56 °F -  
Max Temperature 60 °F 72 °F 88 °F (1951)
Min Temperature 50 °F 47 °F 30 °F (1992)
Degree Days  
Heating Degree Days 10    
Growing Degree Days 6 (Base 50)    
Moisture  
Dew Point 52 °F    
Average Humidity 91    
Maximum Humidity 100    
Minimum Humidity 77    
Precipitation  
Precipitation 0.00 in - - ()
Sea Level Pressure  
Sea Level Pressure 29.94 in    
Wind  
Wind Speed 5 mph (West)    
Max Wind Speed 12 mph    
Max Gust Speed -    
Visibility 7 miles    
Events Fog    
Averages and records for this station are not official NWS values.
T = Trace of Precipitation, MM = Missing Value Source: NWS Daily Summary

Daily Weather History Graph

Daily Weather History Graph

Search for Another Location

Airport or City:

Trip Planner

Search our weather history database for the weather conditions in past years. The results will help you decide how hot, cold, wet, or windy it might be!

Date:

Astronomy

Apr. 28, 2013 Rise Set
Actual Time 6:05 AM CDT 7:47 PM CDT
Civil Twilight 5:37 AM CDT 8:15 PM CDT
Nautical Twilight 5:03 AM CDT 8:49 PM CDT
Astronomical Twilight 4:27 AM CDT 9:26 PM CDT
Moon 11:16 PM CDT (4/28) 8:23 AM CDT (4/28)
Length of Visible Light 14h 38m
Length of Day
13h 41m
Waning Gibbous, 88% of the Moon is Illuminated
Apr 28
Waning Gibbous
May 2
Last Quarter
May 9
New
May 17
First Quarter
May 24
Full

Hourly Weather History & Observations

Time (CDT) Temp. Dew Point Humidity Pressure Visibility Wind Dir Wind Speed Gust Speed Precip Events Conditions
12:15 AM 55.4 °F 53.6 °F 94% 29.93 in 3.0 mi West 3.5 mph - N/A   Overcast
12:35 AM 55.4 °F 53.6 °F 94% 29.92 in 3.0 mi Calm Calm - N/A   Overcast
12:55 AM 55.4 °F 53.6 °F 94% 29.92 in 0.5 mi West 4.6 mph - N/A Fog Fog
1:15 AM 55.4 °F 53.6 °F 94% 29.91 in 0.5 mi West 5.8 mph - N/A Fog Fog
1:35 AM 53.6 °F 53.6 °F 100% 29.91 in 1.8 mi West 6.9 mph - N/A   Overcast
1:55 AM 53.6 °F 53.6 °F 100% 29.90 in 1.5 mi WNW 5.8 mph - N/A   Overcast
2:15 AM 53.6 °F 53.6 °F 100% 29.89 in 1.8 mi WNW 5.8 mph - N/A   Overcast
2:35 AM 53.6 °F 53.6 °F 100% 29.89 in 2.5 mi West 4.6 mph - N/A   Overcast
2:55 AM 53.6 °F 51.8 °F 94% 29.89 in 1.8 mi West 5.8 mph - N/A   Overcast
3:15 AM 53.6 °F 51.8 °F 94% 29.89 in 3.0 mi West 8.1 mph - N/A   Overcast
3:35 AM 53.6 °F 51.8 °F 94% 29.89 in 5.0 mi West 5.8 mph - N/A   Overcast
3:55 AM 53.6 °F 51.8 °F 94% 29.90 in 4.0 mi West 4.6 mph - N/A   Overcast
4:15 AM 53.6 °F 51.8 °F 94% 29.90 in 5.0 mi West 6.9 mph - N/A   Overcast
4:35 AM 53.6 °F 51.8 °F 94% 29.90 in 4.0 mi West 5.8 mph - N/A   Overcast
4:55 AM 53.6 °F 51.8 °F 94% 29.90 in 5.0 mi West 6.9 mph - N/A   Overcast
5:15 AM 53.6 °F 51.8 °F 94% 29.91 in 7.0 mi West 6.9 mph - N/A   Overcast
5:35 AM 53.6 °F 51.8 °F 94% 29.90 in 7.0 mi West 9.2 mph - N/A   Overcast
5:55 AM 53.6 °F 51.8 °F 94% 29.91 in 7.0 mi West 5.8 mph - N/A   Overcast
6:15 AM 53.6 °F 51.8 °F 94% 29.92 in 7.0 mi West 6.9 mph - N/A   Overcast
6:35 AM 53.6 °F 51.8 °F 94% 29.93 in 5.0 mi West 6.9 mph - N/A   Overcast
6:55 AM 53.6 °F 51.8 °F 94% 29.93 in 5.0 mi West 6.9 mph - N/A   Overcast
7:15 AM 53.6 °F 51.8 °F 94% 29.94 in 5.0 mi West 6.9 mph - N/A   Overcast
7:35 AM 53.6 °F 51.8 °F 94% 29.94 in 5.0 mi West 6.9 mph - N/A   Overcast
7:55 AM 53.6 °F 51.8 °F 94% 29.94 in 2.0 mi West 6.9 mph - N/A   Overcast
8:15 AM 53.6 °F 51.8 °F 94% 29.94 in 2.5 mi West 9.2 mph - N/A   Overcast
8:35 AM 53.6 °F 51.8 °F 94% 29.94 in 4.0 mi West 6.9 mph - N/A   Overcast
8:55 AM 53.6 °F 51.8 °F 94% 29.94 in 7.0 mi West 8.1 mph - N/A   Overcast
9:15 AM 53.6 °F 51.8 °F 94% 29.94 in 10.0 mi West 8.1 mph - N/A   Overcast
9:35 AM 53.6 °F 51.8 °F 94% 29.95 in 7.0 mi West 9.2 mph - N/A   Overcast
9:55 AM 53.6 °F 51.8 °F 94% 29.95 in 10.0 mi West 9.2 mph - N/A   Overcast
10:15 AM 53.6 °F 51.8 °F 94% 29.94 in 10.0 mi West 10.4 mph - N/A   Overcast
10:35 AM 53.6 °F 51.8 °F 94% 29.95 in 10.0 mi West 11.5 mph - N/A   Overcast
10:55 AM 53.6 °F 51.8 °F 94% 29.96 in 10.0 mi WNW 9.2 mph - N/A   Overcast
11:15 AM 53.6 °F 51.8 °F 94% 29.96 in 10.0 mi WNW 11.5 mph - N/A   Overcast
11:35 AM 55.4 °F 51.8 °F 88% 29.97 in 10.0 mi WNW 9.2 mph - N/A   Overcast
11:55 AM 53.6 °F 51.8 °F 94% 29.97 in 10.0 mi WNW 10.4 mph - N/A   Overcast
12:15 PM 55.4 °F 51.8 °F 88% 29.97 in 10.0 mi West 6.9 mph - N/A   Overcast
12:35 PM 55.4 °F 51.8 °F 88% 29.96 in 10.0 mi WNW 6.9 mph - N/A   Overcast
12:55 PM 55.4 °F 51.8 °F 88% 29.95 in 10.0 mi West 9.2 mph - N/A   Overcast
1:15 PM 55.4 °F 51.8 °F 88% 29.95 in 10.0 mi West 11.5 mph - N/A   Overcast
1:35 PM 57.2 °F 53.6 °F 88% 29.95 in 10.0 mi West 9.2 mph - N/A   Overcast
1:55 PM 57.2 °F 53.6 °F 88% 29.96 in 10.0 mi West 8.1 mph - N/A   Overcast
2:15 PM 57.2 °F 53.6 °F 88% 29.96 in 10.0 mi West 10.4 mph - N/A   Overcast
2:35 PM 57.2 °F 53.6 °F 88% 29.96 in 10.0 mi West 6.9 mph - N/A   Overcast
2:55 PM 57.2 °F 53.6 °F 88% 29.96 in 10.0 mi West 6.9 mph - N/A   Overcast
3:15 PM 57.2 °F 53.6 °F 88% 29.95 in 10.0 mi WNW 8.1 mph - N/A   Overcast
3:35 PM 59.0 °F 53.6 °F 82% 29.95 in 10.0 mi West 5.8 mph - N/A   Overcast
3:55 PM 59.0 °F 53.6 °F 82% 29.94 in 10.0 mi WNW 4.6 mph - N/A   Overcast
4:15 PM 59.0 °F 53.6 °F 82% 29.94 in 10.0 mi WNW 8.1 mph - N/A   Overcast
4:35 PM 59.0 °F 53.6 °F 82% 29.94 in 10.0 mi NW 6.9 mph - N/A   Overcast
4:55 PM 59.0 °F 53.6 °F 82% 29.94 in 10.0 mi NW 4.6 mph - N/A   Overcast
5:15 PM 59.0 °F 53.6 °F 82% 29.93 in 10.0 mi NW 6.9 mph - N/A   Overcast
5:35 PM 60.8 °F 53.6 °F 77% 29.93 in 10.0 mi WNW 5.8 mph - N/A   Mostly Cloudy
5:55 PM 59.0 °F 53.6 °F 82% 29.93 in 10.0 mi WNW 4.6 mph - N/A   Mostly Cloudy
6:15 PM 59.0 °F 53.6 °F 82% 29.93 in 10.0 mi NW 4.6 mph - N/A   Overcast
6:35 PM 57.2 °F 53.6 °F 88% 29.93 in 10.0 mi Calm Calm - N/A   Overcast
6:55 PM 57.2 °F 53.6 °F 88% 29.94 in 10.0 mi Calm Calm - N/A   Overcast
7:15 PM 57.2 °F 53.6 °F 88% 29.93 in 10.0 mi Calm Calm - N/A   Overcast
7:35 PM 57.2 °F 53.6 °F 88% 29.94 in 10.0 mi Calm Calm - N/A   Overcast
7:55 PM 57.2 °F 53.6 °F 88% 29.94 in 10.0 mi Calm Calm - N/A   Overcast
8:15 PM 57.2 °F 53.6 °F 88% 29.94 in 10.0 mi Calm Calm - N/A   Overcast
8:35 PM 55.4 °F 53.6 °F 94% 29.94 in 10.0 mi Calm Calm - N/A   Overcast
8:55 PM 55.4 °F 53.6 °F 94% 29.95 in 10.0 mi Calm Calm - N/A   Overcast
9:15 PM 55.4 °F 51.8 °F 88% 29.95 in 10.0 mi Calm Calm - N/A   Overcast
9:35 PM 55.4 °F 51.8 °F 88% 29.95 in 10.0 mi Calm Calm - N/A   Scattered Clouds
9:55 PM 53.6 °F 51.8 °F 94% 29.96 in 10.0 mi ESE 3.5 mph - N/A   Scattered Clouds
10:15 PM 53.6 °F 50.0 °F 88% 29.96 in 7.0 mi Calm Calm - N/A   Scattered Clouds
10:35 PM 51.8 °F 50.0 °F 94% 29.96 in 7.0 mi Calm Calm - N/A   Scattered Clouds
10:55 PM 51.8 °F 50.0 °F 94% 29.96 in 7.0 mi SE 3.5 mph - N/A   Scattered Clouds
11:15 PM 51.8 °F 48.2 °F 88% 29.95 in 7.0 mi Calm Calm - N/A   Clear
11:35 PM 51.8 °F 48.2 °F 88% 29.95 in 7.0 mi Calm Calm - N/A   Clear
11:55 PM 50.0 °F 48.2 °F 94% 29.94 in 3.0 mi Calm Calm - N/A   Clear